Location: Althorst
(53.6379°N, 10.7715°E)
Time: 21:20:41
(UTC+00:00)

Cosmos 2360 Rocket - Pass Details

Date: 10 December 2019
Orbit: 833 x 846 km, 71.0° (Epoch: 24 January)

Event Time Altitude Azimuth Distance (km) Brightness Sun altitude
Rises 18:58:18 0° 293° (WNW) 3,411 6.3 -34.3°
Reaches altitude 10° 19:02:02 10° 318° (NW) 2,478 5.1 -34.8°
Enters shadow 19:04:55 14° 348° (NNW) 2,182 4.5 -35.2°
